• In Hungary
  • List of Countries
  • For 7 days
  • Water Temperature
  • Satellite Maps
  • Weather Map
  • News
  • Weather Widgets
  • user-avatar
    Login

    Hourly Weather Kosovo

    Today, 15 August, Wednesday

    Time Temperature Precipitation Wind Pressure Humidity
    00:00 +13°C° 0 mm 1 mps 747 mmHg 78%
    01:00 +13°C° 0 mm 1 mps 747 mmHg 80%
    02:00 +13°C° 0 mm 1 mps 747 mmHg 79%
    03:00 +13°C° 0 mm 1 mps 747 mmHg 80%
    04:00 +13°C° 0 mm 1 mps 746 mmHg 81%
    05:00 +14°C° 0 mm 1 mps 746 mmHg 82%
    06:00 +14°C° 0.3 mm 2 mps 746 mmHg 84%
    07:00 +15°C° 0.3 mm 2 mps 746 mmHg 85%
    08:00 +16°C° 0 mm 2 mps 745 mmHg 87%
    09:00 +16°C° 2.4 mm 2 mps 745 mmHg 90%
    10:00 +16°C° 2.4 mm 2 mps 744 mmHg 93%
    11:00 +16°C° 2.4 mm 2 mps 744 mmHg 96%
    12:00 +17°C° 1.2 mm 2 mps 744 mmHg 94%
    13:00 +18°C° 1.2 mm 2 mps 743 mmHg 93%
    14:00 +19°C° 1.2 mm 2 mps 743 mmHg 92%
    15:00 +19°C° 0.5 mm 2 mps 743 mmHg 92%
    16:00 +18°C° 0.5 mm 2 mps 743 mmHg 92%
    17:00 +18°C° 0.5 mm 2 mps 743 mmHg 93%
    18:00 +17°C° 0.1 mm 2 mps 743 mmHg 94%
    19:00 +17°C° 0.1 mm 2 mps 743 mmHg 96%
    20:00 +16°C° 0.1 mm 2 mps 743 mmHg 97%
    21:00 +15°C° 0.1 mm 2 mps 744 mmHg 97%
    22:00 +15°C° 0.1 mm 2 mps 744 mmHg 97%
    23:00 +14°C° 0.1 mm 2 mps 744 mmHg 97%

    Tomorrow, 16 August, Thursday

    Time Temperature Precipitation Wind Pressure Humidity
    00:00 +14°C° 0 mm 2 mps 745 mmHg 97%
    01:00 +13°C° 0 mm 2 mps 745 mmHg 97%
    02:00 +13°C° 0 mm 2 mps 746 mmHg 97%
    03:00 +13°C° 0 mm 2 mps 746 mmHg 97%
    04:00 +12°C° 0 mm 2 mps 746 mmHg 97%
    05:00 +12°C° 0 mm 2 mps 747 mmHg 97%
    06:00 +13°C° 0 mm 2 mps 747 mmHg 93%
    07:00 +14°C° 0 mm 2 mps 748 mmHg 89%
    08:00 +15°C° 0 mm 2 mps 748 mmHg 85%
    09:00 +17°C° 0 mm 2 mps 749 mmHg 76%
    10:00 +19°C° 0 mm 2 mps 749 mmHg 66%
    11:00 +20°C° 0 mm 2 mps 749 mmHg 57%
    12:00 +21°C° 0 mm 2 mps 749 mmHg 56%
    13:00 +21°C° 0 mm 2 mps 750 mmHg 54%
    14:00 +23°C° 0 mm 2 mps 750 mmHg 52%
    15:00 +23°C° 0 mm 2 mps 750 mmHg 55%
    16:00 +21°C° 0 mm 2 mps 750 mmHg 58%
    17:00 +22°C° 0 mm 1 mps 750 mmHg 61%
    18:00 +20°C° 0 mm 1 mps 751 mmHg 67%
    19:00 +18°C° 0 mm 1 mps 751 mmHg 73%
    20:00 +15°C° 0 mm 1 mps 752 mmHg 79%
    21:00 +14°C° 0 mm 1 mps 752 mmHg 81%
    22:00 +14°C° 0 mm 1 mps 752 mmHg 83%
    23:00 +13°C° 0 mm 1 mps 753 mmHg 85%

    Day after tomorrow, 17 August, Friday

    Time Temperature Precipitation Wind Pressure Humidity
    00:00 +12°C° 0 mm 1 mps 753 mmHg 86%
    01:00 +12°C° 0 mm 1 mps 753 mmHg 86%
    02:00 +12°C° 0 mm 1 mps 753 mmHg 87%
    03:00 +12°C° 0 mm 1 mps 754 mmHg 87%
    04:00 +12°C° 0 mm 1 mps 754 mmHg 86%
    05:00 +12°C° 0 mm 1 mps 754 mmHg 85%
    06:00 +14°C° 0 mm 1 mps 755 mmHg 77%
    07:00 +16°C° 0 mm 1 mps 755 mmHg 69%
    08:00 +20°C° 0 mm 1 mps 755 mmHg 60%
    09:00 +21°C° 0 mm 1 mps 755 mmHg 55%
    10:00 +22°C° 0 mm 1 mps 755 mmHg 50%
    11:00 +24°C° 0 mm 1 mps 755 mmHg 45%
    12:00 +24°C° 0 mm 1 mps 755 mmHg 43%
    13:00 +24°C° 0 mm 1 mps 755 mmHg 42%
    14:00 +25°C° 0 mm 1 mps 754 mmHg 41%
    15:00 +24°C° 0 mm 1 mps 754 mmHg 45%
    16:00 +24°C° 0 mm 1 mps 754 mmHg 50%
    17:00 +23°C° 0 mm 1 mps 754 mmHg 54%
    18:00 +21°C° 0 mm 1 mps 754 mmHg 60%
    19:00 +18°C° 0 mm 1 mps 754 mmHg 65%
    20:00 +15°C° 0 mm 1 mps 754 mmHg 71%
    21:00 +14°C° 0 mm 1 mps 754 mmHg 72%
    22:00 +14°C° 0 mm 1 mps 754 mmHg 74%
    23:00 +13°C° 0 mm 1 mps 755 mmHg 76%

    18 August, Saturday

    Time Temperature Precipitation Wind Pressure Humidity
    00:00 +13°C° 0 mm 1 mps 755 mmHg 78%
    01:00 +12°C° 0 mm 1 mps 755 mmHg 80%
    02:00 +12°C° 0 mm 1 mps 755 mmHg 82%
    03:00 +12°C° 0 mm 1 mps 755 mmHg 83%
    04:00 +12°C° 0 mm 1 mps 755 mmHg 84%
    05:00 +12°C° 0 mm 1 mps 755 mmHg 85%
    06:00 +14°C° 0 mm 1 mps 755 mmHg 79%
    07:00 +16°C° 0 mm 2 mps 755 mmHg 72%
    08:00 +19°C° 0 mm 2 mps 755 mmHg 66%
    09:00 +20°C° 0 mm 2 mps 755 mmHg 61%
    10:00 +21°C° 0 mm 2 mps 755 mmHg 55%
    11:00 +24°C° 0 mm 2 mps 755 mmHg 50%
    12:00 +24°C° 0 mm 2 mps 755 mmHg 49%
    13:00 +25°C° 0 mm 2 mps 754 mmHg 48%
    14:00 +25°C° 0 mm 3 mps 754 mmHg 47%
    15:00 +25°C° 0 mm 2 mps 754 mmHg 51%
    16:00 +24°C° 0 mm 2 mps 753 mmHg 54%
    17:00 +24°C° 0 mm 2 mps 753 mmHg 58%
    18:00 +21°C° 0 mm 2 mps 753 mmHg 65%
    19:00 +19°C° 0 mm 2 mps 753 mmHg 72%
    20:00 +17°C° 0 mm 2 mps 753 mmHg 79%
    21:00 +16°C° 0 mm 2 mps 753 mmHg 80%
    22:00 +15°C° 0 mm 2 mps 753 mmHg 82%
    23:00 +15°C° 0 mm 2 mps 753 mmHg 84%

    19 August, Sunday

    Time Temperature Precipitation Wind Pressure Humidity
    00:00 +14°C° 0 mm 2 mps 753 mmHg 85%
    01:00 +14°C° 0 mm 2 mps 753 mmHg 86%
    02:00 +14°C° 0 mm 2 mps 753 mmHg 88%
    03:00 +14°C° 0 mm 2 mps 753 mmHg 88%
    04:00 +13°C° 0 mm 2 mps 752 mmHg 88%
    05:00 +13°C° 0 mm 2 mps 752 mmHg 88%
    06:00 +16°C° 0 mm 3 mps 752 mmHg 80%
    07:00 +18°C° 0 mm 3 mps 752 mmHg 73%
    08:00 +20°C° 0 mm 4 mps 751 mmHg 66%
    09:00 +21°C° 0 mm 4 mps 751 mmHg 61%
    10:00 +23°C° 0 mm 5 mps 750 mmHg 56%
    11:00 +25°C° 0 mm 5 mps 750 mmHg 51%
    12:00 +25°C° 0 mm 5 mps 749 mmHg 50%
    13:00 +26°C° 0 mm 5 mps 749 mmHg 50%
    14:00 +26°C° 0 mm 5 mps 748 mmHg 49%
    15:00 +26°C° 0.1 mm 5 mps 748 mmHg 54%
    16:00 +25°C° 0.1 mm 5 mps 747 mmHg 60%
    17:00 +23°C° 0.1 mm 4 mps 747 mmHg 65%
    18:00 +22°C° 0.9 mm 4 mps 746 mmHg 71%
    19:00 +21°C° 0.9 mm 4 mps 746 mmHg 77%
    20:00 +19°C° 0.9 mm 4 mps 746 mmHg 83%
    21:00 +19°C° 0.8 mm 4 mps 746 mmHg 87%
    22:00 +18°C° 0.8 mm 3 mps 746 mmHg 92%
    23:00 +17°C° 0.8 mm 3 mps 746 mmHg 96%

    20 August, Monday

    Time Temperature Precipitation Wind Pressure Humidity
    00:00 +17°C° 0 mm 3 mps 746 mmHg 97%
    01:00 +16°C° 0 mm 2 mps 746 mmHg 97%
    02:00 +15°C° 0 mm 2 mps 747 mmHg 97%
    03:00 +15°C° 0 mm 2 mps 747 mmHg 98%
    04:00 +14°C° 0 mm 2 mps 747 mmHg 98%
    05:00 +13°C° 0 mm 2 mps 747 mmHg 98%
    06:00 +15°C° 0 mm 2 mps 748 mmHg 93%
    07:00 +16°C° 0 mm 3 mps 748 mmHg 89%
    08:00 +17°C° 0 mm 3 mps 748 mmHg 85%
    09:00 +18°C° 0 mm 3 mps 748 mmHg 76%
    10:00 +19°C° 0 mm 3 mps 748 mmHg 67%
    11:00 +21°C° 0 mm 3 mps 748 mmHg 58%
    12:00 +21°C° 0 mm 3 mps 749 mmHg 54%
    13:00 +21°C° 0 mm 3 mps 749 mmHg 51%
    14:00 +22°C° 0 mm 3 mps 749 mmHg 47%
    15:00 +21°C° 0 mm 3 mps 749 mmHg 50%
    16:00 +21°C° 0 mm 2 mps 749 mmHg 52%
    17:00 +21°C° 0 mm 2 mps 749 mmHg 54%
    18:00 +19°C° 0 mm 2 mps 749 mmHg 59%
    19:00 +18°C° 0 mm 1 mps 749 mmHg 64%
    20:00 +15°C° 0 mm 1 mps 749 mmHg 69%
    21:00 +14°C° 0 mm 1 mps 749 mmHg 70%
    22:00 +13°C° 0 mm 1 mps 749 mmHg 72%
    23:00 +13°C° 0 mm 1 mps 749 mmHg 73%
    Show more